Location: Rounton
(54.4000°N, 1.3500°W)
Time: 22:19:10
(UTC+00:00)

Vanguard 1 - Pass Details

Date: 06 December 2021
Orbit: 652 x 3830 km, 34.2° (Epoch: 16 January)

Event Time Altitude Azimuth Distance (km) Brightness Sun altitude
Rises 20:52:33 0° 184° (S) 6,712 14.2 -43.3°
Enters shadow 20:55:46 - 177° (S) 6,413 14.0 -43.7°
Reaches altitude 10° 20:58:55 10° 169° (S) 6,189 - -44.1°
Maximum altitude 21:10:57 19° 133° (SE) 6,020 - -45.7°
Drops below altitude 10° 21:24:08 10° 98° (E) 6,917 - -47.3°
Sets 21:31:50 0° 84° (E) 7,767 - -48.2°
